Location: Unspecified
(52.1971°N, 0.0000°E)
Time: 18:04:54
(UTC+00:00)

YUBILEINY - Pass Details

Date: 19 December 2019
Orbit: 1478 x 1509 km, 82.5° (Epoch: 27 January)

Event Time Altitude Azimuth Distance (km) Brightness Sun altitude
Exits shadow 21:21:05 13° 8° (N) 3,406 ? -48.7°
Drops below altitude 10° 21:21:46 10° 9° (N) 3,630 ? -48.8°
Sets 21:24:41 0° 12° (NNE) 4,613 ? -49.2°
